Tracking 19484 objects as of 20-Jan-2019
HD Live streaming from Space Station
objects crossing your sky now

SUPERBIRD 4

Track SUPERBIRD 4 now!
SUPERBIRD 4 is classified as:


NORAD ID: 26095
Int'l Code: 2000-012A
Perigee: 36,153.6 km
Apogee: 36,241.9 km
Inclination: 1.7 °
Period: 1,456.8 minutes
Semi major axis: 42568 km
RCS: 25.1189 m2 (large)
Launch date: February 18, 2000
Source: Japan (JPN)
Launch site: FRENCH GUIANA (FRGUI)

23 Ku-band, 6 Ka-band; Japan, Okinawa; business communications.
aabbcc
Your satellite tracking list
Your tracking list is empty




NASA's NSSDC Master Catalog

Two Line Element Set (TLE):
1 26095U 00012A   19019.73157267  .00000066  00000-0  00000+0 0  9994
2 26095   1.6659  90.0208 0010365  97.8441 261.7391  0.98847682 69273
Source of the keplerian elements: AFSPC